www.pogodaiklimat.ru

Погода и климат >> Архив погоды >> Россия >> Кемеровская область >> Центральный Рудник


ПОГОДА в Центральном Руднике

  • Прогноз погоды в Центральном Руднике
  • Монитор погоды в Центральном Руднике

АРХИВ ПОГОДЫ в Центральном Руднике

Время (UTC), дата Ветер
(напр.,м/с)
 
Видим.   Явления Облачность Т
(С)
Тd
(С)
f
(%)
Тe
(С)
Тes
(С)
Комфортность P
(гПа)
Po
(гПа)
Тmin
(С)
Tmax
(С)
R
(мм)
R24
(мм)
S
(см)
12 15.01 Ю 2 50 км 9/4 1000 м
[Sc Ac As Ci fib]
-5.5 -14.1 51 -9 -9 1017.6 955.3 -2.8
15 15.01 ЮВ 3 50 км 9/4 600 м
[Cb cap Ac As Ci fib]
-7.2 -13.6 60 -13 -13 1017.8 955.1
18 15.01 Ю 3 50 км 9/3 1000 м
[Sc Ac trans Ci fib]
-6.4 -14.3 53 -12 -12 1017.9 955.4
21 15.01 ЮЗ 2 50 км 6/3 1000 м
[Sc Ac trans Ci fib]
-6.4 -13.6 57 -10 -10 1017.8 955.3
00 16.01 ЮЗ 3 50 км 10/5 600 м
[Cb cap Ac As Ci fib]
-6.6 -12.0 65 -12 -12 1018.6 956.0 -7.3 136
03 16.01 ЮВ 1 20 км слаб. ливневой снег 10/6 600 м
[Cb cap Ac und]
-7.7 -9.9 84 -10 -10 1020.1 957.2 -7.7
06 16.01 Ю 1 20 км слаб. ливневой снег 10/6 600 м
[Cb cap Ac und]
-7.0 -9.2 84 -9 -9 1021.0 958.2
09 16.01 ЮЗ 2 20 км слаб. ливневой снег 10/5 600 м
[Cb cap Ac und]
-6.9 -9.3 83 -11 -11 1021.9 959.0
12 16.01 ЮЗ 3 20 км слаб. ливневой снег 10/6 600 м
[Cb cap Ac und]
-7.4 -9.2 87 -13 -13 1023.6 960.5 -6.6 1
15 16.01 ЮЗ 2 20 км слаб. ливневой снег 10/8 570 м
[Cb cap Ac und]
-7.6 -9.5 86 -12 -12 1024.6 961.4
18 16.01 ЮЗ 1 20 км слаб. ливневой снег 10/8 600 м
[Cb cap Ac und]
-8.4 -10.2 87 -11 -11 1026.1 962.7
21 16.01 З 2 20 км слаб. ливневой снег 10/9 570 м
[Cb cap Ac und]
-8.8 -10.5 87 -13 -13 1027.4 963.7
00 17.01 З 1 20 км слаб. ливневой снег 10/10 660 м
[Cb cap]
-9.7 -11.6 86 -12 -12 1029.0 965.1 -9.7 0.5 137
03 17.01 З 1 20 км слаб. ливневой снег 10/8 630 м
[Cb cap Ac und]
-10.2 -12.1 86 -13 -13 1031.3 967.1 -10.2
06 17.01 З 1 20 км слаб. ливневой снег 9/4 600 м
[Cb cap Ac trans Ci sp]
-9.3 -12.6 77 -12 -11 1032.5 968.4
09 17.01 Ю 2 20 км слаб. ливневой снег 9/4 600 м
[Cb cap Ac trans Ci fib]
-10.4 -13.0 81 -15 -15 1033.6 969.2
12 17.01 Ю 1 50 км {ливн. осадки} 10/5 600 м
[Cb cap Ac As Ci fib]
-10.9 -13.2 83 -13 -13 1035.8 971.1 -8.2 0.2
15 17.01 штиль 0 50 км 10/5 600 м
[Cb cap Ac As Ci fib]
-11.1 -13.0 86 -11 -11 1036.5 971.7
18 17.01 ЮЗ 1 50 км 9/6 600 м
[Cb cap Ac As]
-10.2 -12.3 85 -12 -12 1037.1 972.5
21 17.01 Ю 2 50 км 10/6 600 м
[Cb cap Ac und]
-9.7 -12.0 83 -14 -14 1036.8 972.4
00 18.01 ЮВ 2 50 км 8/4 600 м
[Cb cap Ac As Ci fib]
-11.0 -13.2 84 -16 -16 1036.8 972.0 -11.3 137
03 18.01 ЮВ 1 50 км 9/4 600 м
[Cb cap Ac As Ci fib]
-10.6 -12.7 85 -13 -13 1036.6 972.0
06 18.01 Ю 3 50 км 5/3 1000 м
[Sc Ac lent Ci fib]
-7.6 -11.3 75 -13 -13 1034.6 970.8
09 18.01 ЮЗ 2 50 км 9/3 1000 м
[Sc Ac lent Ci fib]
-7.1 -10.8 75 -11 -11 1032.9 969.3
12 18.01 СВ 1 50 км 8/3 1000 м
[Sc Ac lent Ci fib]
-9.7 -12.4 81 -12 -12 1032.6 968.5 -6.4
15 18.01 Ю 3 50 км 8/3 1000 м
[Sc Ac lent Ci fib]
-8.5 -11.9 76 -14 -14 1031.0 967.2
18 18.01 Ю 2 50 км 9/4 1000 м
[Sc Ac As Ci fib]
-6.7 -13.0 61 -11 -11 1028.9 965.6
21 18.01 ЮЗ 3 50 км 9/5 1000 м
[Sc Ac As Ci fib]
-5.8 -11.9 62 -11 -11 1027.4 964.4
00 19.01 Ю 5 50 км 9/4 600 м
[Cb cap Ac As Ci fib]
-5.3 -11.6 61 -12 -12 1026.8 964.0 -10.0 136
03 19.01 Ю 6-11
{11}
50 км 9/3 600 м
[Cb cap Ac As Ci fib]
-7.2 -12.0 69 -15 -15 1027.1 963.8
06 19.01 Ю 5
{12}
50 км {метель} 9/3 1000 м
[Sc Ac trans Ci fib]
-4.5 -11.0 60 -11 -11 1026.5 963.9
09 19.01 Ю 3 50 км {метель} 9/3 1000 м
[Sc Ac lent Ci fib]
-4.0 -10.6 60 -9 -9 1026.1 963.6
12 19.01 ЮВ 2 50 км {метель} 8/3 1000 м
[Sc Ac lent Ci sp]
-4.7 -11.7 58 -8 -8 1025.0 962.5 -3.5
15 19.01 Ю 3 50 км 9/3 1000 м
[Sc Ac lent Ci fib]
-4.7 -12.5 54 -10 -10 1026.0 963.4
18 19.01 Ю 3
{11}
50 км {метель} 9/3 1000 м
[Sc Ac As Ci fib]
-5.6 -11.8 62 -11 -11 1025.9 963.1
21 19.01 Ю 4 50 км 9/4 1000 м
[Sc Ac As Ci fib]
-6.4 -12.4 62 -13 -13 1026.1 963.1
00 20.01 Ю 4
{10}
50 км {метель} 9/4 1000 м
[Sc Ac As Ci fib]
-6.2 -11.9 64 -12 -12 1025.2 962.3 -7.4 132
03 20.01 ЮЗ 4
{11}
20 км слаб. ливневой снег {метель} 10/8 570 м
[Cb cap Ac As Ci fib]
-4.4 -8.9 71 -10 -10 1024.1 961.7
06 20.01 ЮЗ 5
{11}
20 км слаб. ливневой снег {метель} 10/6 600 м
[Cb cap Ac und]
-4.6 -7.3 81 -12 -12 1023.2 960.8
09 20.01 ЮЗ 5
{11}
20 км слаб. ливневой снег {метель} 10/8 570 м
[Cb cap Ac und]
-5.7 -7.4 88 -13 -13 1022.3 959.7
12 20.01 Ю 2 10 км слаб. ливневой снег {метель} 10/9 540 м
[Cb cap Ac und]
-6.0 -7.6 88 -10 -10 1022.6 959.9 -3.8 2
15 20.01 Ю 4 20 км слаб. ливневой снег {метель} 10/6 600 м
[Cb cap Ac und]
-5.3 -8.1 81 -12 -12 1021.6 959.1
18 20.01 Ю 4 20 км слаб. ливневой снег {метель} 10/6 600 м
[Cb cap Ac As Ci fib]
-5.1 -8.2 79 -11 -11 1021.5 959.1
21 20.01 Ю 3 20 км слаб. ливневой снег 10/5 600 м
[Cb cap Ac As Ci fib]
-5.4 -8.0 82 -11 -11 1021.8 959.2
00 21.01 Ю 2 50 км {ливн. осадки} 10/5 600 м
[Cb cap Ac As Ci fib]
-5.8 -8.2 83 -10 -10 1022.6 959.9 -6.0 0.3 133
03 21.01 Ю 1 50 км 10/6 600 м
[Cb cap Ac und]
-6.0 -8.7 81 -8 -8 1022.2 959.5
06 21.01 Ю 1 50 км 10/5 600 м
[Cb cap Ac As Ci fib]
-4.6 -7.9 78 -7 -6 1021.3 959.0
09 21.01 СВ 1 50 км 9/5 600 м
[Cb cap Ac As]
-3.9 -7.7 75 -6 -6 1020.2 958.1
12 21.01 В 2 50 км 10/5 600 м
[Cb cap Ac As Ci fib]
-4.5 -10.4 63 -8 -8 1020.5 958.2 -3.4
15 21.01 ЮВ 2 50 км 10/3 1000 м
[Sc Ac As Ci fib]
-6.3 -11.0 69 -10 -10 1021.1 958.4
18 21.01 Ю 4 50 км {метель} 10/6 600 м
[Cb cap Ac As Ci fib]
-6.0 -10.9 68 -12 -12 1021.3 958.7
21 21.01 Ю 5
{11}
20 км слаб. ливневой снег {метель} 10/8 660 м
[Cb cap Ac und]
-5.6 -8.6 79 -13 -13 1021.5 959.0
00 22.01 ЮЗ 5
{10}
10 км слаб. ливневой снег {метель} 10/10 500 м
[Cb cap]
-5.8 -7.6 87 -13 -13 1022.3 959.7 -7.8 1 133
03 22.01 ЮЗ 4 10 км слаб. ливневой снег {метель} 10/10 540 м
[Cb cap]
-5.0 -6.5 89 -11 -11 1024.5 962.0
06 22.01 ЮЗ 2 4000 м слаб. ливневой снег {метель} 10/9 330 м
[Cb cap Ac und]
-4.0 -5.4 90 -8 -8 1025.8 963.4
09 22.01 З 2 10 км слаб. ливневой снег 10/8 360 м
[Cb cap Ac und]
-4.1 -5.6 89 -8 -8 1028.2 965.6

 

Местоположение метеостанции Центральный Рудник (Кемеровская область, Россия): широта 55.20 долгота 87.65 высота над уровнем моря 498 м.

В архиве по умолчанию представлена погода в Центральном Руднике за последнюю неделю. Архивные данные за месяц целиком и за предыдущие месяцы, начиная с января 2011 года, Вы можете получить, выбрав интересующий диапазон дат из раскрывающегося списка и нажав кнопку "Ввод!".


*Определитесь, кто Вы:
робот инопланетянин человек

Внимание! Время в таблицах - всемирное. Для получения местного времени необходимо прибавить поправку, которая равна 7 ч.

Смотрите также архив погоды в соседних городах и на ближайших метеорологических станциях:

Погода в Крапивино (Кемеровская область, Россия) (57 км)
Погода в Тисуле (Кемеровская область, Россия) (74 км)
Погода в Ненастной (Хакасия, Россия) (90 км)
Погода в Кемерово (Кемеровская область, Россия) (91 км)
Погода в Барзасе (Кемеровская область, Россия) (103 км)
Погода в Шарыпово (Красноярский край, Россия) (105 км)
Погода в Мариинске (Кемеровская область, Россия) (109 км)
Погода в Тяжине (Кемеровская область, Россия) (116 км)
Погода в Белово (Кемеровская область, Россия) (117 км)
Погода в Топках (Кемеровская область, Россия) (130 км)

Пояснения к столбцам:

Ветер - указаны скорость ветра в м/с - средняя за 10 мин, порывы в срок и между сроками (в фигурных скобках) и направление, откуда дует ветер: С - северный, СВ - северо-восточный, В - восточный, ЮВ - юго-восточный, Ю - южный, ЮЗ - юго-западный, З - западный, СЗ - северо-западный.
Видимость - горизонтальная дальность видимости в метрах или километрах. При видимости от 1 до 10 км при отсутствии осадков обычно наблюдается дымка, при ухудшении видимости до 1 км и менее - туман. В сухую погоду видимость может ухудшаться дымом, пылью или мглою.
Явления - указаны атмосферные явления, наблюдавшиеся в срок или в последний час перед сроком; фигурными скобками обозначены явления, наблюдавшиеся между сроками (за 1-3 часа до срока); квадратными скобками обозначены град или гололедные отложения с указанием их диаметра в мм.
Облачность - указаны через наклонную черту общая и нижняя облачность в баллах и высота нижней границы облаков в метрах; квадратными скобками обозначены формы облаков: Ci - перистые, Cs - перисто-слоистые, Cc - перисто-кучевые, Ac - высококучевые, As - высокослоистые, Sc - слоисто-кучевые, Ns - слоисто-дождевые, Cu - кучевые, Cb - кучево-дождевые. Подробнее классификацию облаков см. в Атласе облаков (PDF).
T - Температура воздуха - температура, измеренная на высоте 2 м над землей.
Td - Температура точки росы - температура, при понижении до которой содержащийся в воздухе водяной пар достигнет насыщения.
f - Относительная влажность воздуха - влажноcть воздуха, измеренная на высоте 2 м над землей.
Te - Эффективная температура - температура, которую ощущает одетый по сезону человек в тени. Характеристика душности погоды. При расчете учитывается влияние влажности воздуха и скорости ветра на теплоощущения человека.
Tes - Эффективная температура на солнце - температура, которую ощущает человек, с поправкой на солнечный нагрев. Характеристика знойности погоды. Зависит от высоты солнца над горизонтом, облачности и скорости ветра. Ночью, в пасмурную погоду, а также при ветре 12 м/с и более поправка равна нулю.
P - Атмосферное давление - приведенное к уровню моря атмосферное давление.
Po - Атмосферное давление - измеренное на уровне метеостанции атмосферное давление.
Tmin - Минимальная температура - минимум температуры воздуха на высоте 2 м над землей.
Tmax - Максимальная температура - максимум температуры воздуха на высоте 2 м над землей.
R - Количество осадков - Количество выпавших осадков за период времени, мм. При наведении курсора мыши на число - период времени, за который выпало указанное количество осадков.
R24 - Количество осадков - Количество выпавших осадков за 24 часа, мм.
S - Снежный покров - Высота снежного покрова, см. При наведении курсора мыши на число - состояние снежного покрова и степень покрытия местности в баллах.